This is the latest recevied weather packets stored in our database for station/object N1ICS-1. If no packets are shown the sender has not sent any weather packets the latest 10 day(s).
| Time | Temp. | Humidity | Pressure | Rain* | Wind** | Luminosity | Snow |
|---|---|---|---|---|---|---|---|
| 1777922402 | 24.44° C | 51% | 1005.3 hPa | 0 mm | - | 928 W/m² | - |
| 1777922101 | 24.44° C | 51% | 1005.5 hPa | 0 mm | - | 924 W/m² | - |
| 1777921802 | 25° C | 50% | 1005.6 hPa | 0 mm | - | 936 W/m² | - |
| 1777921502 | 25° C | 49% | 1005.6 hPa | 0 mm | - | 946 W/m² | - |
| 1777921203 | 25.56° C | 48% | 1005.7 hPa | 0 mm | - | 913 W/m² | - |
| 1777920901 | 25° C | 50% | 1005.5 hPa | 0 mm | - | 918 W/m² | - |
| 1777920602 | 25° C | 48% | 1005.6 hPa | 0 mm | - | 934 W/m² | - |
| 1777920302 | 24.44° C | 51% | 1005.5 hPa | 0 mm | - | 952 W/m² | - |
| 1777920002 | 23.89° C | 51% | 1005.7 hPa | 0 mm | - | 1088 W/m² | - |
| 1777919702 | 23.89° C | 53% | 1006 hPa | 0 mm | - | 1089 W/m² | - |
| 1777919401 | 24.44° C | 50% | 1005.9 hPa | 0 mm | - | 1033 W/m² | - |
| 1777919102 | 24.44° C | 51% | 1006.1 hPa | 0 mm | - | 1021 W/m² | - |
| 1777918802 | 24.44° C | 51% | 1006.2 hPa | 0 mm | - | 485 W/m² | - |
| 1777918502 | 24.44° C | 51% | 1006.2 hPa | 0 mm | - | 1059 W/m² | - |
| 1777918202 | 23.33° C | 55% | 1006.3 hPa | 0 mm | - | 502 W/m² | - |
| 1777917902 | 23.33° C | 56% | 1006.2 hPa | 0 mm | - | 509 W/m² | - |
| 1777917603 | 23.89° C | 53% | 1006.5 hPa | 0 mm | - | 1011 W/m² | - |
| 1777917302 | 23.33° C | 54% | 1006.5 hPa | 0 mm | - | 985 W/m² | - |
| 1777917002 | 23.33° C | 55% | 1006.4 hPa | 0 mm | - | 964 W/m² | - |
| 1777916702 | 23.33° C | 52% | 1006.5 hPa | 0 mm | - | 954 W/m² | - |
| 1777916402 | 23.33° C | 52% | 1006.5 hPa | 0 mm | - | 974 W/m² | - |
| 1777916101 | 23.89° C | 53% | 1006.5 hPa | 0 mm | - | 972 W/m² | - |
| 1777915801 | 23.33° C | 52% | 1006.5 hPa | 0 mm | - | 970 W/m² | - |
| 1777915502 | 23.33° C | 54% | 1006.6 hPa | 0 mm | - | 970 W/m² | - |
| 1777915201 | 23.33° C | 52% | 1006.7 hPa | 0 mm | - | 968 W/m² | - |
* Rain latest hour (hover to see other rain measurements)
** Current wind speed in m/s (hover to see current wind gust speed)